Anderson, SC

7:00 PM EDT on June 25, 2017 (GMT -0400)
Anderson Regional

Weather History for KAND - November, 2013

Change the Weather History Date:

Sunday, November 10, 2013

  Actual Average Record
Temperature  
Mean Temperature 58 °F -  
Max Temperature 72 °F 66 °F 80 °F (1980)
Min Temperature 44 °F 43 °F 24 °F (1957)
Degree Days  
Heating Degree Days 7    
Growing Degree Days 8 (Base 50)    
Moisture  
Dew Point 36 °F    
Average Humidity 50    
Maximum Humidity 79    
Minimum Humidity 24    
Precipitation  
Precipitation 0.00 in - - ()
Sea Level Pressure  
Sea Level Pressure 30.20 in    
Wind  
Wind Speed 2 mph (WSW)    
Max Wind Speed 8 mph    
Max Gust Speed -    
Visibility 10 miles    
Events      
Averages and records for this station are not official NWS values.
T = Trace of Precipitation, MM = Missing Value Source: NWS Daily Summary

Daily Weather History Graph

Daily Weather History Graph

Search for Another Location

Airport or City:

Trip Planner

Search our weather history database for the weather conditions in past years. The results will help you decide how hot, cold, wet, or windy it might be!

Date:

Astronomy

Nov. 10, 2013 Rise Set
Actual Time 6:59 AM EST 5:29 PM EST
Civil Twilight 6:33 AM EST 5:55 PM EST
Nautical Twilight 6:03 AM EST 6:26 PM EST
Astronomical Twilight 5:33 AM EST 6:55 PM EST
Moon 1:17 PM EST (11/10) No Moon Set
Length of Visible Light 11h 22m
Length of Day
10h 29m
First Quarter, 55% of the Moon is Illuminated
Nov 10
First Quarter
Nov 17
Full
Nov 25
Last Quarter
Dec 2
New
Dec 9
First Quarter

Hourly Weather History & Observations

Time (EST) Temp. Windchill Dew Point Humidity Pressure Visibility Wind Dir Wind Speed Gust Speed Precip Events Conditions
12:56 AM 46.0 °F - 39.0 °F 76% 30.22 in 10.0 mi Calm Calm - N/A   Clear
1:56 AM 44.1 °F 42.5 °F 37.9 °F 79% 30.21 in 10.0 mi SSW 3.5 mph - N/A   Clear
2:56 AM 44.1 °F - 37.0 °F 76% 30.21 in 10.0 mi Calm Calm - N/A   Clear
3:56 AM 50.0 °F - 36.0 °F 59% 30.20 in 10.0 mi West 8.1 mph - N/A   Clear
4:56 AM 50.0 °F - 35.1 °F 57% 30.20 in 10.0 mi WSW 5.8 mph - N/A   Clear
5:56 AM 48.9 °F - 36.0 °F 61% 30.20 in 10.0 mi Calm Calm - N/A   Clear
6:56 AM 48.0 °F - 36.0 °F 63% 30.21 in 10.0 mi Calm Calm - N/A   Clear
7:56 AM 46.9 °F - 37.0 °F 68% 30.23 in 10.0 mi Calm Calm - N/A   Partly Cloudy
8:56 AM 50.0 °F - 37.9 °F 63% 30.26 in 10.0 mi Calm Calm - N/A   Clear
9:56 AM 57.9 °F - 35.1 °F 42% 30.24 in 10.0 mi Calm Calm - N/A   Clear
10:56 AM 63.0 °F - 34.0 °F 34% 30.23 in 10.0 mi Calm Calm - N/A   Clear
11:56 AM 66.0 °F - 34.0 °F 30% 30.21 in 10.0 mi SW 5.8 mph - N/A   Clear
12:56 PM 69.1 °F - 34.0 °F 27% 30.18 in 10.0 mi Variable 3.5 mph - N/A   Clear
1:56 PM 71.1 °F - 34.0 °F 26% 30.16 in 10.0 mi WSW 6.9 mph - N/A   Clear
2:56 PM 71.1 °F - 33.1 °F 25% 30.14 in 10.0 mi WSW 4.6 mph - N/A   Clear
3:56 PM 72.0 °F - 33.1 °F 24% 30.14 in 10.0 mi WSW 3.5 mph - N/A   Clear
4:56 PM 70.0 °F - 34.0 °F 27% 30.14 in 10.0 mi South 4.6 mph - N/A   Clear
5:56 PM 62.1 °F - 37.9 °F 41% 30.16 in 10.0 mi Calm Calm - N/A   Clear
6:56 PM 57.9 °F - 39.0 °F 49% 30.18 in 10.0 mi Calm Calm - N/A   Clear
7:56 PM 52.0 °F - 41.0 °F 66% 30.19 in 10.0 mi Calm Calm - N/A   Clear
8:56 PM 59.0 °F - 33.1 °F 38% 30.19 in 10.0 mi NNW 4.6 mph - N/A   Clear
9:56 PM 57.0 °F - 33.1 °F 40% 30.19 in 10.0 mi North 5.8 mph - N/A   Clear
10:56 PM 48.0 °F - 37.0 °F 66% 30.20 in 10.0 mi North 4.6 mph - N/A   Clear
11:56 PM 48.0 °F - 37.0 °F 66% 30.20 in 10.0 mi Calm Calm - N/A   Clear